Página principal
METAR-TAF:

METAR-TAF

Aeroportos :

Yap, Micronésia

latitude: 09-29N, longitude: 138-05E, altura: 28 m

Observação actual do tempo

O boletim foi feito há 37 minutos, às 15:50 UTC
Vento 8 kt de oeste
Temperatura 28°C
Humidade 84%
Pressão 1008 hPa
Visibilidade: 19.3 km
Poucas nuvensa uma altura de 1700 ft
Nuvens dispersasa uma altura de 3000 ft
Encobertoa uma altura de 30000 ft

METAR: PTYA 231550Z 28008KT 12SM FEW017 SCT030 OVC300 28/25 A2976 RMK SLP079 T02840254

Hora: 02:27 (16:27 UTC)

Previsão

O boletim foi feito há 5 horas e 7 minutos, às 11:20 UTC
Previsão válida de 23 às 12 UTC a 24 às 12 UTC
Vento 7 kt de sudoeste
Visibilidade: 10 km
Nuvens dispersasa uma altura de 1800 ft
Nuvens fragmentadasa uma altura de 13000 ft
Encobertoa uma altura de 30000 ft
aguaceiros nas vizinhanças

TAF: PTYA 231120Z 2312/2412 23007KT P6SM VCSH SCT018 BKN130 OVC300

Observações e previsões do tempo de mais de 4000 aeroportos (mensagens METAR e TAF).

As estações disponíveis são os pontos amarelos e vermelhos sobre o mapa.

Mova o rato sobre o mapa para ver o nome da estação.

Depois clique no ponto para visualizar as observações e previsões meteorológicas.

Para alterar o mapa : clique nos botões verdes com uma cruz preta para aumentar o zoom; no botão verde com uma pitada de zoom; ou nas setas verdes para mapas adjacentes.


METAR-TAF: